Location: Huesca
(42.1318°N, 0.4078°W)
Time: 23:15:43
(UTC+02:00)

DIWATA 2B (PO-101) - Visible Passes

Search period start: 24 April 2024 00:00
Search period end: 04 May 2024 00:00
Orbit: 576 x 588 km, 98.1° (Epoch: 24 April)

Date Brightness Start Highest point End Pass type
(mag) Time Alt. Az. Time Alt. Az. Time Alt. Az.
24 Apr ? 05:19:07 10° SSE 05:23:16 80° ENE 05:27:27 10° N visible
25 Apr ? 05:24:46 10° SSE 05:28:55 88° WSW 05:33:06 10° NNW visible
26 Apr ? 03:59:13 10° ENE 03:59:52 10° ENE 04:00:32 10° NE visible
26 Apr ? 05:30:25 10° S 05:34:34 77° WSW 05:38:45 10° NNW visible
27 Apr ? 04:03:55 10° E 04:05:27 12° ENE 04:06:58 10° NE visible
27 Apr ? 05:36:05 10° S 05:40:14 66° W 05:44:22 10° NNW visible
28 Apr ? 04:08:59 10° E 04:11:01 13° ENE 04:13:03 10° NNE visible
28 Apr ? 05:41:47 10° S 05:45:52 57° W 05:49:58 10° NNW visible
29 Apr ? 04:14:10 10° E 04:16:35 15° ENE 04:18:59 10° NNE visible
29 Apr ? 05:47:29 10° S 05:51:30 49° W 05:55:33 10° NNW visible
30 Apr ? 04:19:26 10° ESE 04:22:09 17° ENE 04:24:52 10° NNE visible
30 Apr ? 05:53:12 10° S 05:57:08 42° W 06:01:06 10° NNW visible
01 May ? 04:24:44 10° ESE 04:27:42 19° ENE 04:30:41 10° NNE visible
01 May ? 05:58:56 10° SSW 06:02:46 36° W 06:06:38 10° NNW visible
02 May ? 04:30:05 10° ESE 04:33:15 22° ENE 04:36:27 10° NNE visible
02 May ? 06:04:41 10° SSW 06:08:24 32° W 06:12:08 10° NNW visible
03 May ? 04:35:26 10° ESE 04:38:48 25° ENE 04:42:12 10° NNE visible
03 May ? 06:10:27 10° SSW 06:14:01 28° W 06:17:37 10° NW visible
